{"data":{"norad_id":58846,"intl_designator":"2024-017W","name":"STARLINK-31273","alt_names":[],"object_type":"PAYLOAD","status":"ACTIVE","operator":null,"country":"US","launch_date":"2024-01-24","launch_site_code":"AFWTR","launch_vehicle":null,"mission":null,"orbit_class":"UNKNOWN","rcs_meters":null,"size_class":null,"mass_kg":null,"dimensions":null,"purposes":["comms"],"wikipedia_slug":null,"has_3d_model":false,"image_url":null,"decayed_at":null,"tle_current":{"epoch":"2026-05-25T04:11:37.530816Z","epoch_age_seconds":55989,"freshness":"FRESH","line1":"1 58846U 24017W   26145.17473994  .00001146  00000+0  50825-4 0  9992","line2":"2 58846  53.1598 209.2507 0001120  80.4648 279.6479 15.30195487131768","mean_motion":15.30195487,"eccentricity":0.000112,"inclination_deg":53.1598,"raan_deg":209.2507,"arg_perigee_deg":80.4648,"mean_anomaly_deg":279.6479,"bstar":5.0825e-5,"rev_number":13176,"period_min":94.105623250998,"perigee_km":474.46096751599,"apogee_km":475.99612139795,"semimajor_km":6853.365544457,"source":"CELESTRAK","updated_at":"2026-05-25T13:38:18.756808Z"}}}